Simultaneous Nadir Overpasses (SNOs) Predictions

Prediction of SNOs between FY3D and METOP-C Satellite Orbit:

Table of predicted SNOs for the next 14.0 days since TLE Epoch: 6/1/2024
Index Date (FY3D) Time (FY3D) Lat,Lon (FY3D) SZA (FY3D ) Date (METOP-C) Time (METOP-C) Lat,Lon (METOP-C) SZA (METOP-C ) Distance(km) Time Diff (sec)
1 06/03/2024 08:44:07 76.22, 47.11 53.76 06/03/2024 08:45:15 76.17, 49.49 53.70 63.69 68
2 06/03/2024 09:34:48 -76.04,-144.91 126.44 06/03/2024 09:36:00 -76.00,-143.76 126.48 31.17 72
3 06/03/2024 10:25:30 75.87, 22.97 53.40 06/03/2024 10:26:43 75.87, 23.15 53.40 5.02 73
4 06/03/2024 11:16:14 -75.82,-169.54 126.66 06/03/2024 11:17:25 -75.84,-169.62 126.65 3.01 71
5 06/03/2024 12:07:00 75.84, -2.29 53.35 06/03/2024 12:08:05 75.86, -2.24 53.37 2.19 65
6 06/03/2024 12:57:45 -75.83, 165.04 126.66 06/03/2024 12:58:47 -75.82, 164.98 126.67 1.91 62
7 06/03/2024 13:48:31 75.85, -27.71 53.36 06/03/2024 13:49:27 75.84, -27.64 53.34 2.51 56
8 06/03/2024 14:39:16 -75.85, 139.62 126.66 06/03/2024 14:40:08 -75.85, 139.74 126.65 3.27 52
9 06/03/2024 15:30:01 75.82, -52.97 53.32 06/03/2024 15:30:49 75.82, -53.04 53.32 1.74 48
10 06/03/2024 16:20:46 -75.81, 114.36 126.70 06/03/2024 16:21:30 -75.84, 114.34 126.68 2.55 44
11 06/03/2024 17:11:32 75.83, -78.39 53.32 06/03/2024 17:12:11 75.80, -78.44 53.29 3.38 39
12 06/03/2024 18:02:17 -75.83, 88.94 126.69 06/03/2024 18:02:52 -75.82, 88.94 126.70 0.78 35
13 06/03/2024 18:53:03 75.84,-103.81 53.32 06/03/2024 18:53:32 75.83,-103.68 53.31 3.81 29
14 06/03/2024 19:43:47 -75.79, 63.68 126.74 06/03/2024 19:44:14 -75.80, 63.55 126.73 3.64 27
15 06/03/2024 20:34:33 75.81,-129.07 53.28 06/03/2024 20:34:54 75.81,-129.08 53.29 0.43 21
16 06/03/2024 21:25:18 -75.80, 38.26 126.73 06/03/2024 21:25:35 -75.83, 38.30 126.71 3.13 17
17 06/03/2024 22:16:04 75.82,-154.49 53.29 06/03/2024 22:16:16 75.80,-154.48 53.26 2.96 12
18 06/03/2024 23:06:49 -75.82, 12.84 126.73 06/03/2024 23:06:57 -75.81, 12.91 126.73 1.85 8
19 06/03/2024 23:57:34 75.79,-179.76 53.25 06/03/2024 23:57:38 75.78,-179.87 53.23 3.37 4
20 06/04/2024 00:48:19 -75.78, -12.42 126.77 06/04/2024 00:48:19 -75.80, -12.49 126.76 2.28 0
21 06/04/2024 01:39:05 75.80, 154.82 53.25 06/04/2024 01:38:59 75.81, 154.88 53.26 1.70 6
22 06/04/2024 02:29:50 -75.80, -37.84 126.76 06/04/2024 02:29:41 -75.78, -37.89 126.78 2.27 9
23 06/04/2024 03:20:35 75.77, 129.56 53.21 06/04/2024 03:20:21 75.79, 129.48 53.23 3.21 14
24 06/04/2024 04:11:21 -75.81, -63.26 126.76 06/04/2024 04:11:02 -75.81, -63.13 126.76 3.48 19
25 06/04/2024 05:02:06 75.78, 104.14 53.21 06/04/2024 05:01:43 75.77, 104.09 53.20 1.76 23
26 06/04/2024 05:52:51 -75.77, -88.52 126.80 06/04/2024 05:52:24 -75.79, -88.53 126.79 1.74 27
27 06/04/2024 06:43:37 75.79, 78.72 53.22 06/04/2024 06:43:04 75.80, 78.84 53.23 3.34 33
28 06/04/2024 07:34:22 -75.79,-113.94 126.80 06/04/2024 07:33:46 -75.77,-113.92 126.81 1.63 36
29 06/04/2024 08:25:07 75.76, 53.46 53.18 06/04/2024 08:24:26 75.78, 53.44 53.20 2.72 41
30 06/04/2024 09:15:52 -75.75,-139.21 126.84 06/04/2024 09:15:08 -75.76,-139.32 126.84 3.17 44
31 06/04/2024 10:06:38 75.77, 28.04 53.18 06/04/2024 10:05:48 75.77, 28.05 53.17 0.68 50
32 06/04/2024 10:57:23 -75.77,-164.62 126.83 06/04/2024 10:56:29 -75.78,-164.57 126.82 2.59 54
33 06/04/2024 11:48:08 75.74, 2.78 53.14 06/04/2024 11:47:10 75.75, 2.65 53.15 3.66 58
34 06/04/2024 12:38:54 -75.78, 169.96 126.83 06/04/2024 12:37:51 -75.77, 170.04 126.84 2.47 63
35 06/04/2024 13:29:39 75.75, -22.64 53.14 06/04/2024 13:28:31 75.78, -22.60 53.17 3.16 68
36 06/04/2024 14:20:24 -75.74, 144.69 126.87 06/04/2024 14:19:13 -75.75, 144.64 126.87 1.57 71
37 06/04/2024 15:11:08 75.67, -47.75 53.06 06/04/2024 15:09:55 75.67, -48.29 53.05 14.92 73
38 06/04/2024 16:01:51 -75.57, 119.88 127.05 06/04/2024 16:00:39 -75.55, 118.65 127.08 34.29 72
39 06/04/2024 16:52:31 75.31, -71.98 52.69 06/04/2024 16:51:24 75.32, -74.71 52.70 77.07 67



Historial Predications of SNOs between FY3D and METOP-C
